SCP
-0 -0 0 0 0 0 0 0 0 0 0 0 0 0 0 0 0 0 -0 -0 -0 0 0 0 0 0 0 0 0 0 0 0 0 0 0 0 0 0 0 0 0 0 0
-0 -0 0 0 0 0 0 0 0 0 0 0 0 0 0 0 0 0 0 0 0 -0 0 0 0 0 0 0 0 0 0 0 0 0 0 0 0 0 0 0 0 0 0
-0 -0 0 0 0 0 0 0 0 0 0 0 0 0 0 0 0 0 0 0 0 0 0 0 0 0 0 0 0 0 0 0 0 0 0 0 0 0 0 0 0 0 0
0 0 0 0 0 0 0 0 0 0 0 0 0 0 0 0 0 0 0 0 0 0 0 0 0 0 0 0 0 0 0 0 0 0 0 0 0 0 0 0 0 0 0
0 0 0 0 0 0 0 0 0 0 0 0 0 0 0 0 0 0 -0 0 0 0 0 0 0 0 0 0 0 0 0 0 0 0 0 0 0 0 0 0 0 0 0
0 0 0 0 0 0 0 0 0 0 0 0 0 0 0 0 0 0 0 0 -0 0 0 0 0 0 0 0 0 0 0 0 0 0 0 0 0 0 0 0 0 0 0
0 0 0 -0 -0 -0 0 0 0 0 0 0 0 0 0 0 0 0 0 0 0 0 0 0 0 0 0 0 0 0 0 0 0 0 0 0 0 0 0 0 0 0 0
-0 -0 -0 -0 -0 -0 -0 -0 -0 0 0 0 0 0 0 0 0 0 0 0 0 0 0 0 0 0 0 0 0 0 0 0 0 0 0 0 0 0 0 0 0 0 0
-0 -0 0 0 0 0 -0 -0 -0 -0 -0 0 0 0 0 0 0 0 0 0 0 0 0 0 0 0 0 0 0 0 0 0 0 0 0 0 0 0 0 0 0 0 0
0 0 0 0 0 0 0 0 0 0 0 0 0 0 0 0 0 0 0 0 0 0 0 0 0 0 0 0 0 0 0 0 0 0 0 0 0 0 0 0 0 0 0
0 0 0 0 0 0 0 0 0 0 0 0 0 0 0 0 0 0 0 0 0 0 0 0 0 0 0 0 0 0 0 0 0 0 0 0 0 0 0 0 0 0 0
0 0 0 0 0 0 0 0 0 0 0 0 0 0 0 0 0 0 0 0 0 0 0 0 0 0 0 0 0 0 0 0 0 0 0 0 0 0 0 0 0 0 0
0 0 0 0 0 0 0 0 0 0 0 0 0 0 0 0 0 0 0 0 0 0 0 0 0 0 0 0 0 0 0 0 0 0 0 0 0 0 0 0 0 0 0
0 0 0 0 0 0 0 0 0 0 0 0 0 0 0 0 0 0 0 0 0 0 0 0 0 0 0 0 0 0 0 0 0 0 0 0 0 0 0 0 0 0 0
0 0 0 0 0 0 0 0 0 0 0 0 0 0 0 0 0 0 0 0 0 0 0 0 0 0 0 0 0 0 0 0 0 0 0 0 0 0 0 0 0 0 0
0 0 0 0 0 0 0 0 0 0 0 0 0 0 0 0 0 0 0 0 0 0 0 0 0 0 0 0 0 0 0 0 0 0 0 0 0 0 0 0 0 0 0
0 0 0 0 0 0 0 0 0 0 0 0 0 0 0 0 0 0 0 0 0 0 0 0 0 0 0 0 0 0 0 0 0 0 0 0 0 0 0 0 0 0 0
0 0 0 0 0 0 0 0 0 0 0 0 0 0 0 0 0 0 0 0 0 0 0 0 0 0 0 0 0 0 0 0 0 0 0 0 0 0 0 0 0 0 0
0 0 0 0 0 0 0 0 0 0 0 0 0 0 0 0 0 0 0 0 0 0 0 0 0 0 0 0 0 0 0 0 0 0 0 0 0 0 0 0 0 0 0
0 0 0 0 0 0 0 0 0 0 0 0 0 0 0 0 0 0 0 0 0 0 0 0 0 0 0 0 0 0 0 0 0 0 0 0 0 0 0 0 0 0 0
0 0 0 0 0 0 0 0 0 0 0 0 0 0 0 0 0 0 0 0 0 0 0 0 0 0 0 0 0 0 0 0 0 0 0 0 0 0 0 0 0 0 0
0 0 0 0 0 0 0 0 0 0 0 0 0 0 0 0 0 0 0 0 0 0 0 0 0 0 0 0 0 0 0 0 0 0 0 0 0 0 0 0 0 0 0
0 0 0 0 0 0 0 0 0 0 0 0 0 0 0 0 0 0 0 0 0 0 0 0 0 0 0 0 0 0 0 0 0 0 0 0 0 0 0 0 0 0 0
0 0 0 0 0 0 0 0 0 0 0 0 0 0 0 0 0 0 0 0 0 0 0 0 0 0 0 0 0 0 0 0 0 0 0 0 0 0 0 0 0 0 0
0 0 0 0 0 0 0 0 0 0 0 0 0 0 0 0 0 0 0 0 0 0 0 0 0 0 0 0 0 0 0 0 0 0 0 0 0 0 0 0 0 0 0
0 0 0 0 0 0 0 0 0 0 0 0 0 0 0 0 0 0 0 0 0 0 0 0 0 0 0 0 0 0 0 0 0 0 0 0 -0 0 0 0 0 0 0
Wind_Speed_500mb
34 25 22 21 22 16 13 15 15 15 19 19 19 22 24 24 21 19 15 10 11 13 16 14 7 9 22 24 19 17 15 17 19 20 15 15 16 19 18 13 14 17 16
27 21 19 20 21 26 16 16 19 19 19 22 25 24 26 26 24 20 16 8 13 17 21 25 14 12 18 16 29 28 25 25 31 27 25 20 22 19 19 15 15 16 16
19 16 14 17 17 21 23 16 19 24 23 25 25 29 29 27 25 24 21 18 17 17 18 18 14 15 20 20 18 30 34 38 37 36 32 28 23 23 18 19 17 16 16
23 18 12 6 15 16 19 20 23 24 28 28 27 27 30 28 27 27 24 21 23 23 20 24 28 29 33 29 24 28 30 35 37 38 37 33 28 25 19 20 18 17 16
22 21 20 16 12 12 10 14 20 24 27 31 35 34 33 31 32 29 25 27 24 29 32 28 30 30 30 39 33 34 35 26 33 35 36 35 34 28 23 19 18 18 16
24 24 23 20 20 24 23 20 21 23 26 29 35 34 38 35 36 34 32 31 30 32 37 46 45 40 34 33 41 37 35 33 34 32 31 31 33 29 25 24 22 20 18
26 27 26 23 24 24 29 32 34 29 31 31 33 35 37 41 40 43 41 40 37 34 37 41 52 53 52 47 45 43 38 37 38 37 36 33 31 30 30 29 25 24 23
26 26 27 25 22 23 28 30 31 36 38 39 36 38 39 39 43 46 49 50 49 45 42 41 42 47 51 45 44 50 45 47 45 43 39 37 36 34 31 31 28 27 27
23 22 22 26 27 26 25 26 28 31 35 41 42 44 46 46 47 47 50 53 55 56 53 48 44 44 44 53 52 49 55 57 55 51 47 42 39 39 35 34 31 31 31
21 21 19 18 25 31 34 36 35 34 37 42 45 50 43 47 56 55 54 56 58 60 64 58 51 50 50 43 53 54 56 60 64 60 57 53 46 45 42 38 36 35 34
22 23 24 26 25 21 22 30 38 40 41 42 43 49 51 45 41 55 61 59 64 64 68 68 66 58 59 52 54 61 59 66 67 68 64 60 55 51 47 43 42 38 38
25 29 30 29 29 29 27 26 26 28 32 40 48 50 50 51 51 51 54 47 57 67 70 74 73 72 65 61 60 61 68 69 70 72 71 66 63 59 54 50 47 44 41
23 26 28 29 31 32 33 34 34 35 36 36 38 41 47 53 54 55 62 63 57 71 62 73 79 83 82 76 71 74 69 65 75 76 74 71 70 67 62 57 53 51 47
20 24 27 30 33 34 35 36 38 39 40 41 44 47 48 49 49 55 58 59 57 55 55 74 82 91 88 91 81 81 79 70 64 76 81 76 74 74 71 66 60 57 54
22 25 29 33 37 40 40 41 41 42 43 46 48 50 54 54 55 57 55 57 58 58 58 57 59 83 87 98 97 92 89 81 76 66 80 82 79 77 76 73 67 61 57
21 26 30 32 37 41 46 47 46 47 48 49 51 52 53 58 61 59 61 61 56 57 57 60 57 62 66 97 99 99 100 96 86 79 72 82 84 81 80 78 75 68 61
20 26 31 34 37 43 49 49 48 50 52 54 57 57 58 59 62 62 62 61 61 59 58 63 64 59 63 52 90 102 101 107 102 89 82 77 82 87 86 83 80 76 67
19 26 30 36 39 43 51 50 51 53 57 59 59 60 61 62 61 63 67 64 60 61 60 57 64 66 70 63 60 95 102 108 109 104 92 88 83 85 90 88 85 81 76
19 27 33 41 45 47 53 54 55 56 59 63 66 69 70 70 65 64 64 64 61 61 60 59 57 60 68 72 63 62 75 108 115 103 106 100 91 88 88 90 88 86 83
19 28 36 44 49 54 57 60 59 60 61 63 66 70 71 70 68 65 61 58 59 60 62 60 59 56 57 63 71 75 62 49 66 106 103 109 100 94 91 91 91 89 86
22 29 38 47 49 54 59 64 66 69 72 74 75 77 76 72 69 68 66 63 59 62 61 58 61 59 59 50 50 64 91 88 58 76 116 105 109 103 95 95 95 92 89
27 32 40 47 53 54 58 61 66 72 78 79 79 78 76 78 74 67 65 64 61 62 63 60 57 61 60 47 48 49 49 59 78 90 79 103 107 107 102 97 97 97 94
32 36 43 50 54 55 58 60 65 72 78 83 84 86 83 82 81 73 63 62 64 61 64 61 58 57 60 58 51 40 22 35 43 57 73 84 102 108 109 101 98 98 98
34 38 46 52 55 56 56 61 68 76 84 84 88 91 91 90 86 75 68 61 61 61 62 60 60 60 56 62 53 47 56 63 35 18 29 44 62 87 91 107 101 98 96
35 41 48 54 53 54 57 61 68 75 80 86 90 95 94 90 79 71 66 64 61 59 62 61 58 58 59 60 56 52 58 62 57 70 71 59 55 66 67 76 108 104 96
38 45 52 50 53 53 57 60 67 75 83 89 91 94 94 88 79 71 66 65 67 65 65 62 58 57 61 65 65 70 73 56 54 58 64 66 66 70 80 94 97 106 97
Wind_Direction_500mb
10 17 35 22 11 343 307 292 284 293 291 290 293 304 310 313 313 307 305 319 327 313 312 305 264 234 223 229 233 236 228 216 217 229 245 256 248 230 223 201 178 172 167
3 14 29 24 2 349 318 302 293 286 292 298 300 303 304 305 305 300 289 274 249 277 275 287 233 263 247 233 239 235 243 235 236 240 250 257 249 234 203 186 177 176 154
0 1 1 7 3 353 346 309 306 296 287 295 303 309 305 301 303 299 287 271 235 271 241 250 221 245 260 259 251 248 250 245 245 246 248 241 241 234 201 189 190 169 167
352 333 301 336 342 349 345 347 334 313 306 296 296 304 310 299 303 307 294 285 255 249 259 250 247 264 265 262 258 257 265 244 238 242 245 239 240 219 204 198 196 189 183
339 337 326 311 286 295 312 301 308 310 300 298 299 299 297 287 287 299 298 300 284 253 249 248 261 265 268 243 248 252 268 237 233 235 237 230 221 195 207 203 204 209 206
318 321 324 317 297 279 281 283 279 281 289 298 296 290 292 290 279 287 290 293 296 279 255 251 254 267 264 253 235 253 260 248 234 227 219 216 215 211 209 216 219 220 218
309 306 306 305 301 286 275 276 279 280 285 286 289 295 288 286 285 281 283 283 287 284 280 270 252 253 261 270 238 235 253 249 233 229 225 223 221 222 219 223 222 225 225
311 297 286 290 294 290 288 286 284 280 282 284 279 279 280 277 278 278 279 284 280 280 279 279 281 261 259 258 259 231 238 246 238 233 233 233 227 227 228 230 231 231 229
329 315 293 279 282 292 294 290 290 290 286 279 280 281 280 277 271 270 275 276 277 277 275 275 279 285 259 252 259 237 234 239 240 238 238 236 231 230 232 233 236 235 234
27 15 2 325 289 284 288 294 297 294 287 286 288 282 293 288 276 272 271 270 270 269 272 272 272 283 282 252 258 264 240 238 239 239 240 240 238 237 237 234 237 238 237
29 28 25 23 16 359 325 304 296 295 294 292 289 288 290 287 294 276 274 277 272 270 267 268 270 265 270 272 257 257 259 244 241 241 241 241 242 241 240 234 239 238 238
28 23 21 18 15 9 3 355 348 337 319 303 296 294 295 295 293 288 288 279 281 274 269 267 266 268 267 258 261 263 255 251 243 242 241 241 241 242 241 240 239 240 240
18 18 12 8 2 357 353 352 348 347 344 338 332 321 304 293 290 290 287 287 292 272 286 259 264 263 261 258 255 261 270 268 248 240 241 239 239 241 243 242 242 241 239
4 1 358 356 356 355 353 349 344 340 337 334 330 325 320 317 310 294 289 283 280 285 289 281 268 259 261 261 257 256 259 264 267 253 242 239 239 240 242 242 241 242 240
351 348 346 346 347 347 344 342 340 337 335 331 327 325 324 320 313 305 304 293 284 281 279 274 256 258 259 260 260 257 259 259 260 261 253 243 239 240 242 241 241 240 238
342 345 341 340 341 342 341 337 335 334 333 331 328 325 322 318 315 311 304 299 297 284 276 269 271 266 253 259 259 261 258 257 257 256 255 251 243 239 240 242 241 239 237
341 347 344 333 327 327 330 331 330 330 330 330 327 325 325 321 315 310 305 301 297 292 284 275 270 267 266 255 260 257 259 255 254 254 254 251 248 243 240 240 241 239 235
342 342 341 336 330 324 326 326 325 326 328 328 326 323 323 321 317 310 306 302 297 294 289 282 274 271 262 264 271 256 260 263 260 251 252 251 247 246 244 240 240 238 238
341 342 336 334 332 323 322 322 321 323 325 325 327 326 325 323 318 311 305 300 299 294 291 288 282 276 276 267 263 266 264 265 263 258 250 248 249 247 245 244 241 238 237
325 334 330 328 329 323 321 318 316 318 319 323 326 323 321 320 319 316 309 302 299 297 293 290 288 285 280 279 272 263 247 254 256 257 258 250 247 249 247 244 242 239 237
299 318 321 322 324 322 320 320 320 323 324 324 325 322 321 321 319 314 308 303 299 296 294 290 289 286 282 283 286 276 259 251 275 267 256 259 250 247 248 245 240 239 237
286 305 315 319 321 322 320 319 320 322 322 320 321 320 322 320 318 313 307 303 300 297 293 291 287 286 284 278 277 287 279 269 259 252 263 255 256 251 244 245 242 237 236
282 299 308 317 322 322 319 318 319 318 319 321 322 322 321 318 315 311 304 299 297 294 292 290 288 283 282 277 268 259 281 258 265 257 247 249 252 250 246 241 242 239 236
277 297 305 316 321 320 319 321 322 321 320 322 321 320 318 317 315 308 304 299 295 294 291 290 286 283 279 275 274 261 254 256 276 278 242 239 250 237 244 242 238 239 236
280 295 304 315 319 320 322 322 321 319 320 320 321 319 318 318 315 310 305 302 297 292 290 290 286 275 272 271 265 261 253 254 258 257 265 261 254 255 259 270 245 238 234
287 300 308 312 318 320 321 321 321 322 323 323 323 321 321 320 317 310 308 303 297 293 291 288 288 277 268 267 265 259 256 255 256 259 264 265 261 256 255 265 260 240 232
Wind_Speed_850mb
34 25 22 21 22 16 13 15 15 15 19 19 19 22 24 24 21 19 15 10 11 13 16 14 7 9 22 24 19 17 15 17 19 20 15 15 16 19 18 13 14 17 16
27 21 19 20 21 26 16 16 19 19 19 22 25 24 26 26 24 20 16 8 13 17 21 25 14 12 18 16 29 28 25 25 31 27 25 20 22 19 19 15 15 16 16
19 16 14 17 17 21 23 16 19 24 23 25 25 29 29 27 25 24 21 18 17 17 18 18 14 15 20 20 18 30 34 38 37 36 32 28 23 23 18 19 17 16 16
23 18 12 6 15 16 19 20 23 24 28 28 27 27 30 28 27 27 24 21 23 23 20 24 28 29 33 29 24 28 30 35 37 38 37 33 28 25 19 20 18 17 16
22 21 20 16 12 12 10 14 20 24 27 31 35 34 33 31 32 29 25 27 24 29 32 28 30 30 30 39 33 34 35 26 33 35 36 35 34 28 23 19 18 18 16
24 24 23 20 20 24 23 20 21 23 26 29 35 34 38 35 36 34 32 31 30 32 37 46 45 40 34 33 41 37 35 33 34 32 31 31 33 29 25 24 22 20 18
26 27 26 23 24 24 29 32 34 29 31 31 33 35 37 41 40 43 41 40 37 34 37 41 52 53 52 47 45 43 38 37 38 37 36 33 31 30 30 29 25 24 23
26 26 27 25 22 23 28 30 31 36 38 39 36 38 39 39 43 46 49 50 49 45 42 41 42 47 51 45 44 50 45 47 45 43 39 37 36 34 31 31 28 27 27
23 22 22 26 27 26 25 26 28 31 35 41 42 44 46 46 47 47 50 53 55 56 53 48 44 44 44 53 52 49 55 57 55 51 47 42 39 39 35 34 31 31 31
21 21 19 18 25 31 34 36 35 34 37 42 45 50 43 47 56 55 54 56 58 60 64 58 51 50 50 43 53 54 56 60 64 60 57 53 46 45 42 38 36 35 34
22 23 24 26 25 21 22 30 38 40 41 42 43 49 51 45 41 55 61 59 64 64 68 68 66 58 59 52 54 61 59 66 67 68 64 60 55 51 47 43 42 38 38
25 29 30 29 29 29 27 26 26 28 32 40 48 50 50 51 51 51 54 47 57 67 70 74 73 72 65 61 60 61 68 69 70 72 71 66 63 59 54 50 47 44 41
23 26 28 29 31 32 33 34 34 35 36 36 38 41 47 53 54 55 62 63 57 71 62 73 79 83 82 76 71 74 69 65 75 76 74 71 70 67 62 57 53 51 47
20 24 27 30 33 34 35 36 38 39 40 41 44 47 48 49 49 55 58 59 57 55 55 74 82 91 88 91 81 81 79 70 64 76 81 76 74 74 71 66 60 57 54
22 25 29 33 37 40 40 41 41 42 43 46 48 50 54 54 55 57 55 57 58 58 58 57 59 83 87 98 97 92 89 81 76 66 80 82 79 77 76 73 67 61 57
21 26 30 32 37 41 46 47 46 47 48 49 51 52 53 58 61 59 61 61 56 57 57 60 57 62 66 97 99 99 100 96 86 79 72 82 84 81 80 78 75 68 61
20 26 31 34 37 43 49 49 48 50 52 54 57 57 58 59 62 62 62 61 61 59 58 63 64 59 63 52 90 102 101 107 102 89 82 77 82 87 86 83 80 76 67
19 26 30 36 39 43 51 50 51 53 57 59 59 60 61 62 61 63 67 64 60 61 60 57 64 66 70 63 60 95 102 108 109 104 92 88 83 85 90 88 85 81 76
19 27 33 41 45 47 53 54 55 56 59 63 66 69 70 70 65 64 64 64 61 61 60 59 57 60 68 72 63 62 75 108 115 103 106 100 91 88 88 90 88 86 83
19 28 36 44 49 54 57 60 59 60 61 63 66 70 71 70 68 65 61 58 59 60 62 60 59 56 57 63 71 75 62 49 66 106 103 109 100 94 91 91 91 89 86
22 29 38 47 49 54 59 64 66 69 72 74 75 77 76 72 69 68 66 63 59 62 61 58 61 59 59 50 50 64 91 88 58 76 116 105 109 103 95 95 95 92 89
27 32 40 47 53 54 58 61 66 72 78 79 79 78 76 78 74 67 65 64 61 62 63 60 57 61 60 47 48 49 49 59 78 90 79 103 107 107 102 97 97 97 94
32 36 43 50 54 55 58 60 65 72 78 83 84 86 83 82 81 73 63 62 64 61 64 61 58 57 60 58 51 40 22 35 43 57 73 84 102 108 109 101 98 98 98
34 38 46 52 55 56 56 61 68 76 84 84 88 91 91 90 86 75 68 61 61 61 62 60 60 60 56 62 53 47 56 63 35 18 29 44 62 87 91 107 101 98 96
35 41 48 54 53 54 57 61 68 75 80 86 90 95 94 90 79 71 66 64 61 59 62 61 58 58 59 60 56 52 58 62 57 70 71 59 55 66 67 76 108 104 96
38 45 52 50 53 53 57 60 67 75 83 89 91 94 94 88 79 71 66 65 67 65 65 62 58 57 61 65 65 70 73 56 54 58 64 66 66 70 80 94 97 106 97
Wind_Direction_850mb
10 17 35 22 11 343 307 292 284 293 291 290 293 304 310 313 313 307 305 319 327 313 312 305 264 234 223 229 233 236 228 216 217 229 245 256 248 230 223 201 178 172 167
3 14 29 24 2 349 318 302 293 286 292 298 300 303 304 305 305 300 289 274 249 277 275 287 233 263 247 233 239 235 243 235 236 240 250 257 249 234 203 186 177 176 154
0 1 1 7 3 353 346 309 306 296 287 295 303 309 305 301 303 299 287 271 235 271 241 250 221 245 260 259 251 248 250 245 245 246 248 241 241 234 201 189 190 169 167
352 333 301 336 342 349 345 347 334 313 306 296 296 304 310 299 303 307 294 285 255 249 259 250 247 264 265 262 258 257 265 244 238 242 245 239 240 219 204 198 196 189 183
339 337 326 311 286 295 312 301 308 310 300 298 299 299 297 287 287 299 298 300 284 253 249 248 261 265 268 243 248 252 268 237 233 235 237 230 221 195 207 203 204 209 206
318 321 324 317 297 279 281 283 279 281 289 298 296 290 292 290 279 287 290 293 296 279 255 251 254 267 264 253 235 253 260 248 234 227 219 216 215 211 209 216 219 220 218
309 306 306 305 301 286 275 276 279 280 285 286 289 295 288 286 285 281 283 283 287 284 280 270 252 253 261 270 238 235 253 249 233 229 225 223 221 222 219 223 222 225 225
311 297 286 290 294 290 288 286 284 280 282 284 279 279 280 277 278 278 279 284 280 280 279 279 281 261 259 258 259 231 238 246 238 233 233 233 227 227 228 230 231 231 229
329 315 293 279 282 292 294 290 290 290 286 279 280 281 280 277 271 270 275 276 277 277 275 275 279 285 259 252 259 237 234 239 240 238 238 236 231 230 232 233 236 235 234
27 15 2 325 289 284 288 294 297 294 287 286 288 282 293 288 276 272 271 270 270 269 272 272 272 283 282 252 258 264 240 238 239 239 240 240 238 237 237 234 237 238 237
29 28 25 23 16 359 325 304 296 295 294 292 289 288 290 287 294 276 274 277 272 270 267 268 270 265 270 272 257 257 259 244 241 241 241 241 242 241 240 234 239 238 238
28 23 21 18 15 9 3 355 348 337 319 303 296 294 295 295 293 288 288 279 281 274 269 267 266 268 267 258 261 263 255 251 243 242 241 241 241 242 241 240 239 240 240
18 18 12 8 2 357 353 352 348 347 344 338 332 321 304 293 290 290 287 287 292 272 286 259 264 263 261 258 255 261 270 268 248 240 241 239 239 241 243 242 242 241 239
4 1 358 356 356 355 353 349 344 340 337 334 330 325 320 317 310 294 289 283 280 285 289 281 268 259 261 261 257 256 259 264 267 253 242 239 239 240 242 242 241 242 240
351 348 346 346 347 347 344 342 340 337 335 331 327 325 324 320 313 305 304 293 284 281 279 274 256 258 259 260 260 257 259 259 260 261 253 243 239 240 242 241 241 240 238
342 345 341 340 341 342 341 337 335 334 333 331 328 325 322 318 315 311 304 299 297 284 276 269 271 266 253 259 259 261 258 257 257 256 255 251 243 239 240 242 241 239 237
341 347 344 333 327 327 330 331 330 330 330 330 327 325 325 321 315 310 305 301 297 292 284 275 270 267 266 255 260 257 259 255 254 254 254 251 248 243 240 240 241 239 235
342 342 341 336 330 324 326 326 325 326 328 328 326 323 323 321 317 310 306 302 297 294 289 282 274 271 262 264 271 256 260 263 260 251 252 251 247 246 244 240 240 238 238
341 342 336 334 332 323 322 322 321 323 325 325 327 326 325 323 318 311 305 300 299 294 291 288 282 276 276 267 263 266 264 265 263 258 250 248 249 247 245 244 241 238 237
325 334 330 328 329 323 321 318 316 318 319 323 326 323 321 320 319 316 309 302 299 297 293 290 288 285 280 279 272 263 247 254 256 257 258 250 247 249 247 244 242 239 237
299 318 321 322 324 322 320 320 320 323 324 324 325 322 321 321 319 314 308 303 299 296 294 290 289 286 282 283 286 276 259 251 275 267 256 259 250 247 248 245 240 239 237
286 305 315 319 321 322 320 319 320 322 322 320 321 320 322 320 318 313 307 303 300 297 293 291 287 286 284 278 277 287 279 269 259 252 263 255 256 251 244 245 242 237 236
282 299 308 317 322 322 319 318 319 318 319 321 322 322 321 318 315 311 304 299 297 294 292 290 288 283 282 277 268 259 281 258 265 257 247 249 252 250 246 241 242 239 236
277 297 305 316 321 320 319 321 322 321 320 322 321 320 318 317 315 308 304 299 295 294 291 290 286 283 279 275 274 261 254 256 276 278 242 239 250 237 244 242 238 239 236
280 295 304 315 319 320 322 322 321 319 320 320 321 319 318 318 315 310 305 302 297 292 290 290 286 275 272 271 265 261 253 254 258 257 265 261 254 255 259 270 245 238 234
287 300 308 312 318 320 321 321 321 322 323 323 323 321 321 320 317 310 308 303 297 293 291 288 288 277 268 267 265 259 256 255 256 259 264 265 261 256 255 265 260 240 232